Wetterdaten: Dienstag, 10.03.2015
Datum Zeit Auen-Temp. A-Temp. 2 Luftfeuchte Luftfeuchte Luftdruck Regen Wind Richtung Richtung Taupunkt Windchill Windben
10.03.2015 00:00 -2,4 C 0,9 C 77 % 77 % 1026,6 hPa 0,0 l/m 0,2 km/h (0 Bft) O-NO 67 -2,7 C -3,2 C 0,0 km/h (0 Bft)
10.03.2015 00:05 -2,4 C 0,9 C 77 % 77 % 1026,6 hPa 0,0 l/m 0,2 km/h (0 Bft) O-NO 67 -2,7 C -3,4 C 0,0 km/h (0 Bft)
10.03.2015 00:10 -2,4 C 0,9 C 77 % 77 % 1026,6 hPa 0,0 l/m 0,0 km/h (0 Bft) O 90 -2,7 C -3,7 C 0,0 km/h (0 Bft)
10.03.2015 00:15 -2,4 C 0,9 C 77 % 77 % 1026,7 hPa 0,0 l/m 0,0 km/h (0 Bft) O-NO 67 -2,7 C -3,9 C 0,0 km/h (0 Bft)
10.03.2015 00:20 -2,4 C 0,9 C 77 % 77 % 1026,7 hPa 0,0 l/m 0,0 km/h (0 Bft) O-NO 67 -2,7 C -3,9 C 0,0 km/h (0 Bft)
10.03.2015 00:25 -2,4 C 0,9 C 77 % 77 % 1026,7 hPa 0,0 l/m 0,0 km/h (0 Bft) O-NO 67 -2,7 C -3,9 C 0,0 km/h (0 Bft)
10.03.2015 00:30 -2,4 C 0,9 C 77 % 77 % 1026,7 hPa 0,0 l/m 0,0 km/h (0 Bft) O-NO 67 -2,7 C -4,0 C 0,0 km/h (0 Bft)
10.03.2015 00:35 -2,4 C 0,9 C 77 % 77 % 1026,6 hPa 0,0 l/m 0,0 km/h (0 Bft) O-NO 67 -2,7 C -4,1 C 0,0 km/h (0 Bft)
10.03.2015 00:40 -2,4 C 0,9 C 77 % 77 % 1026,6 hPa 0,0 l/m 0,0 km/h (0 Bft) O-NO 67 -2,7 C -4,2 C 0,0 km/h (0 Bft)
10.03.2015 00:45 -2,4 C 0,9 C 77 % 77 % 1026,6 hPa 0,0 l/m 0,0 km/h (0 Bft) O-NO 67 -2,7 C -4,2 C 0,0 km/h (0 Bft)
10.03.2015 00:50 -2,4 C 0,8 C 77 % 77 % 1026,6 hPa 0,0 l/m 0,0 km/h (0 Bft) O-NO 67 -2,8 C -4,2 C 0,0 km/h (0 Bft)
10.03.2015 00:55 -2,4 C 0,8 C 77 % 77 % 1026,6 hPa 0,0 l/m 0,0 km/h (0 Bft) O-NO 67 -2,8 C -4,3 C 0,0 km/h (0 Bft)
10.03.2015 01:00 -2,4 C 0,8 C 78 % 78 % 1026,6 hPa 0,0 l/m 0,0 km/h (0 Bft) O-NO 67 -2,6 C -4,5 C 0,0 km/h (0 Bft)
10.03.2015 01:05 -2,4 C 0,8 C 78 % 78 % 1026,6 hPa 0,0 l/m 0,0 km/h (0 Bft) O-NO 67 -2,6 C -4,4 C 0,0 km/h (0 Bft)
10.03.2015 01:10 -2,4 C 0,8 C 78 % 78 % 1026,6 hPa 0,0 l/m 0,0 km/h (0 Bft) O-NO 67 -2,6 C -4,5 C 0,0 km/h (0 Bft)
10.03.2015 01:15 -2,4 C 0,8 C 78 % 78 % 1026,9 hPa 0,0 l/m 0,0 km/h (0 Bft) O-NO 67 -2,6 C -4,4 C 0,0 km/h (0 Bft)
10.03.2015 01:20 -2,4 C 0,8 C 78 % 78 % 1026,9 hPa 0,0 l/m 0,0 km/h (0 Bft) O-NO 67 -2,6 C -4,4 C 0,0 km/h (0 Bft)
10.03.2015 01:25 -2,4 C 0,8 C 78 % 78 % 1026,9 hPa 0,0 l/m 0,0 km/h (0 Bft) O-NO 67 -2,6 C -4,4 C 0,0 km/h (0 Bft)
10.03.2015 01:30 -2,4 C 0,8 C 78 % 78 % 1026,9 hPa 0,0 l/m 0,0 km/h (0 Bft) O 90 -2,6 C -4,4 C 0,0 km/h (0 Bft)
10.03.2015 01:35 -2,4 C 0,8 C 78 % 78 % 1027,0 hPa 0,0 l/m 0,0 km/h (0 Bft) O-NO 67 -2,6 C -4,4 C 0,0 km/h (0 Bft)
10.03.2015 01:40 -3,1 C 0,8 C 78 % 78 % 1027,0 hPa 0,0 l/m 0,0 km/h (0 Bft) O-SO 112 -2,6 C -4,2 C 1,8 km/h (1 Bft)
10.03.2015 01:45 -3,0 C 0,8 C 78 % 78 % 1027,0 hPa 0,0 l/m 0,0 km/h (0 Bft) NO 45 -2,6 C -4,1 C 0,0 km/h (0 Bft)
10.03.2015 01:50 -2,8 C 0,8 C 79 % 79 % 1027,0 hPa 0,0 l/m 0,2 km/h (0 Bft) O 90 -2,4 C -4,0 C 2,1 km/h (1 Bft)
10.03.2015 01:55 -2,2 C 0,8 C 79 % 79 % 1026,9 hPa 0,0 l/m 0,2 km/h (0 Bft) O-SO 112 -2,4 C -3,8 C 0,0 km/h (0 Bft)
10.03.2015 02:00 -1,9 C 0,8 C 79 % 79 % 1026,9 hPa 0,0 l/m 0,2 km/h (0 Bft) SO 135 -2,4 C -3,5 C 0,0 km/h (0 Bft)
10.03.2015 02:05 -2,2 C 0,9 C 79 % 79 % 1026,9 hPa 0,0 l/m 0,2 km/h (0 Bft) NO 45 -2,3 C -3,4 C 0,0 km/h (0 Bft)
10.03.2015 02:10 -2,8 C 0,8 C 79 % 79 % 1026,9 hPa 0,0 l/m 0,2 km/h (0 Bft) O-NO 67 -2,4 C -3,7 C 0,0 km/h (0 Bft)
10.03.2015 02:15 -3,0 C 0,8 C 79 % 79 % 1027,1 hPa 0,0 l/m 0,0 km/h (0 Bft) O-NO 67 -2,4 C -3,9 C 0,0 km/h (0 Bft)
10.03.2015 02:20 -2,7 C 0,8 C 79 % 79 % 1027,1 hPa 0,0 l/m 0,0 km/h (0 Bft) NO 45 -2,4 C -4,0 C 0,0 km/h (0 Bft)
10.03.2015 02:25 -3,0 C 0,8 C 79 % 79 % 1027,1 hPa 0,0 l/m 0,0 km/h (0 Bft) NO 45 -2,4 C -4,0 C 0,0 km/h (0 Bft)
10.03.2015 02:30 -3,2 C 0,8 C 79 % 79 % 1027,1 hPa 0,0 l/m 0,0 km/h (0 Bft) NO 45 -2,4 C -4,2 C 0,0 km/h (0 Bft)
10.03.2015 02:35 -3,4 C 0,8 C 79 % 79 % 1027,0 hPa 0,0 l/m 0,0 km/h (0 Bft) NO 45 -2,4 C -4,2 C 0,0 km/h (0 Bft)
10.03.2015 02:40 -3,5 C 0,8 C 79 % 79 % 1027,0 hPa 0,0 l/m 0,0 km/h (0 Bft) SO 135 -2,4 C -4,4 C 0,0 km/h (0 Bft)
10.03.2015 02:45 -3,5 C 0,8 C 79 % 79 % 1027,0 hPa 0,0 l/m 0,0 km/h (0 Bft) O-NO 67 -2,4 C -4,5 C 0,0 km/h (0 Bft)
10.03.2015 02:50 -2,7 C 0,8 C 79 % 79 % 1027,0 hPa 0,0 l/m 0,0 km/h (0 Bft) SO 135 -2,4 C -4,3 C 0,0 km/h (0 Bft)
10.03.2015 02:55 -2,4 C 0,8 C 79 % 79 % 1026,9 hPa 0,0 l/m 0,0 km/h (0 Bft) NO 45 -2,4 C -3,9 C 0,0 km/h (0 Bft)
10.03.2015 03:00 -2,9 C 0,8 C 79 % 79 % 1026,9 hPa 0,0 l/m 0,0 km/h (0 Bft) NO 45 -2,4 C -3,7 C 0,0 km/h (0 Bft)
10.03.2015 03:05 -3,1 C 0,8 C 79 % 79 % 1026,9 hPa 0,0 l/m 0,0 km/h (0 Bft) O-NO 67 -2,4 C -3,8 C 0,0 km/h (0 Bft)
10.03.2015 03:10 -3,1 C 0,8 C 79 % 79 % 1026,9 hPa 0,0 l/m 0,0 km/h (0 Bft) O-NO 67 -2,4 C -4,0 C 0,0 km/h (0 Bft)
10.03.2015 03:15 -3,3 C 0,8 C 79 % 79 % 1026,7 hPa 0,0 l/m 0,0 km/h (0 Bft) NO 45 -2,4 C -4,2 C 0,0 km/h (0 Bft)
10.03.2015 03:20 -3,5 C 0,8 C 79 % 79 % 1026,7 hPa 0,0 l/m 0,0 km/h (0 Bft) O-SO 112 -2,4 C -4,4 C 0,0 km/h (0 Bft)
10.03.2015 03:25 -3,5 C 0,8 C 79 % 79 % 1026,7 hPa 0,0 l/m 0,0 km/h (0 Bft) NO 45 -2,4 C -4,5 C 0,0 km/h (0 Bft)
10.03.2015 03:30 -3,7 C 0,8 C 79 % 79 % 1026,7 hPa 0,0 l/m 0,0 km/h (0 Bft) NO 45 -2,4 C -4,6 C 0,0 km/h (0 Bft)
10.03.2015 03:35 -3,7 C 0,8 C 79 % 79 % 1026,7 hPa 0,0 l/m 0,0 km/h (0 Bft) NO 45 -2,4 C -4,5 C 0,0 km/h (0 Bft)
10.03.2015 03:40 -3,6 C 0,8 C 79 % 79 % 1026,7 hPa 0,0 l/m 0,0 km/h (0 Bft) O 90 -2,4 C -4,5 C 0,0 km/h (0 Bft)
10.03.2015 03:45 -3,6 C 0,8 C 79 % 79 % 1026,7 hPa 0,0 l/m 0,0 km/h (0 Bft) O 90 -2,4 C -4,4 C 0,0 km/h (0 Bft)
10.03.2015 03:50 -3,5 C 0,8 C 79 % 79 % 1026,7 hPa 0,0 l/m 0,0 km/h (0 Bft) NO 45 -2,4 C -4,6 C 0,0 km/h (0 Bft)
10.03.2015 03:55 -3,5 C 0,8 C 79 % 79 % 1026,8 hPa 0,0 l/m 0,0 km/h (0 Bft) NO 45 -2,4 C -4,6 C 0,0 km/h (0 Bft)
10.03.2015 04:00 -3,5 C 0,8 C 80 % 80 % 1026,8 hPa 0,0 l/m 0,0 km/h (0 Bft) O-NO 67 -2,2 C -4,5 C 0,0 km/h (0 Bft)
10.03.2015 04:05 -3,6 C 0,8 C 80 % 80 % 1026,8 hPa 0,0 l/m 0,0 km/h (0 Bft) O-NO 67 -2,2 C -4,5 C 0,0 km/h (0 Bft)
10.03.2015 04:10 -3,7 C 0,8 C 79 % 79 % 1026,8 hPa 0,0 l/m 0,0 km/h (0 Bft) NO 45 -2,4 C -4,7 C 0,0 km/h (0 Bft)
10.03.2015 04:15 -3,8 C 0,8 C 79 % 79 % 1026,6 hPa 0,0 l/m 0,0 km/h (0 Bft) NO 45 -2,4 C -4,7 C 0,0 km/h (0 Bft)
10.03.2015 04:20 -3,7 C 0,8 C 80 % 80 % 1026,6 hPa 0,0 l/m 0,0 km/h (0 Bft) NO 45 -2,2 C -4,7 C 0,0 km/h (0 Bft)
10.03.2015 04:25 -3,8 C 0,8 C 80 % 80 % 1026,6 hPa 0,0 l/m 0,0 km/h (0 Bft) O-SO 112 -2,2 C -4,8 C 0,0 km/h (0 Bft)
10.03.2015 04:30 -3,7 C 0,8 C 80 % 80 % 1026,6 hPa 0,0 l/m 0,0 km/h (0 Bft) O-NO 67 -2,2 C -4,8 C 0,0 km/h (0 Bft)
10.03.2015 04:35 -3,8 C 0,8 C 80 % 80 % 1026,6 hPa 0,0 l/m 0,0 km/h (0 Bft) S 180 -2,2 C -5,0 C 0,0 km/h (0 Bft)
10.03.2015 04:40 -4,0 C 0,8 C 80 % 80 % 1026,6 hPa 0,0 l/m 0,0 km/h (0 Bft) S 180 -2,2 C -5,0 C 0,0 km/h (0 Bft)
10.03.2015 04:45 -4,0 C 0,8 C 80 % 80 % 1026,6 hPa 0,0 l/m 0,0 km/h (0 Bft) S 180 -2,2 C -5,1 C 0,0 km/h (0 Bft)
10.03.2015 04:50 -3,8 C 0,8 C 80 % 80 % 1026,6 hPa 0,0 l/m 0,0 km/h (0 Bft) S 180 -2,2 C -5,0 C 0,0 km/h (0 Bft)
10.03.2015 04:55 -3,7 C 0,8 C 80 % 80 % 1026,6 hPa 0,0 l/m 0,0 km/h (0 Bft) S 180 -2,2 C -5,0 C 0,0 km/h (0 Bft)
10.03.2015 05:00 -4,0 C 0,8 C 80 % 80 % 1026,6 hPa 0,0 l/m 0,0 km/h (0 Bft) S 180 -2,2 C -5,1 C 0,0 km/h (0 Bft)
10.03.2015 05:05 -4,2 C 0,8 C 80 % 80 % 1026,6 hPa 0,0 l/m 0,0 km/h (0 Bft) W-SW 247 -2,2 C -5,2 C 0,0 km/h (0 Bft)
10.03.2015 05:10 -4,3 C 0,8 C 80 % 80 % 1026,6 hPa 0,0 l/m 0,0 km/h (0 Bft) W-SW 247 -2,2 C -5,3 C 0,0 km/h (0 Bft)
10.03.2015 05:15 -4,1 C 0,8 C 80 % 80 % 1026,4 hPa 0,0 l/m 0,0 km/h (0 Bft) SO 135 -2,2 C -5,3 C 0,0 km/h (0 Bft)
10.03.2015 05:20 -4,0 C 0,8 C 80 % 80 % 1026,4 hPa 0,0 l/m 0,0 km/h (0 Bft) O-NO 67 -2,2 C -5,2 C 0,0 km/h (0 Bft)
10.03.2015 05:25 -4,4 C 0,8 C 80 % 80 % 1026,4 hPa 0,0 l/m 0,0 km/h (0 Bft) O-NO 67 -2,2 C -5,3 C 0,0 km/h (0 Bft)
10.03.2015 05:30 -4,5 C 0,8 C 80 % 80 % 1026,4 hPa 0,0 l/m 0,0 km/h (0 Bft) NO 45 -2,2 C -5,4 C 0,0 km/h (0 Bft)
10.03.2015 05:35 -4,1 C 0,8 C 80 % 80 % 1026,6 hPa 0,0 l/m 0,0 km/h (0 Bft) O-SO 112 -2,2 C -5,3 C 0,0 km/h (0 Bft)
10.03.2015 05:40 -3,9 C 0,8 C 80 % 80 % 1026,6 hPa 0,0 l/m 0,0 km/h (0 Bft) W-SW 247 -2,2 C -5,1 C 0,0 km/h (0 Bft)
10.03.2015 05:45 -4,0 C 0,8 C 80 % 80 % 1026,6 hPa 0,0 l/m 0,0 km/h (0 Bft) O-SO 112 -2,2 C -5,1 C 0,0 km/h (0 Bft)
10.03.2015 05:50 -3,9 C 0,8 C 80 % 80 % 1026,6 hPa 0,0 l/m 0,0 km/h (0 Bft) SO 135 -2,2 C -5,1 C 0,0 km/h (0 Bft)
10.03.2015 05:55 -3,6 C 0,8 C 81 % 81 % 1025,9 hPa 0,0 l/m 0,0 km/h (0 Bft) NW 315 -2,1 C -5,0 C 0,0 km/h (0 Bft)
10.03.2015 06:00 -2,6 C 0,8 C 81 % 81 % 1025,9 hPa 0,0 l/m 0,0 km/h (0 Bft) N 360 -2,1 C -4,5 C 0,0 km/h (0 Bft)
10.03.2015 06:05 -3,0 C 0,8 C 81 % 81 % 1025,9 hPa 0,0 l/m 0,2 km/h (0 Bft) NW 315 -2,1 C -4,4 C 0,0 km/h (0 Bft)
10.03.2015 06:10 -2,9 C 0,8 C 81 % 81 % 1025,9 hPa 0,0 l/m 0,5 km/h (0 Bft) W-SW 247 -2,1 C -4,3 C 3,1 km/h (1 Bft)
10.03.2015 06:15 -2,9 C 0,8 C 81 % 81 % 1026,1 hPa 0,0 l/m 0,5 km/h (0 Bft) S 180 -2,1 C -4,4 C 0,0 km/h (0 Bft)
10.03.2015 06:20 -3,2 C 0,8 C 81 % 81 % 1026,1 hPa 0,0 l/m 0,5 km/h (0 Bft) O-NO 67 -2,1 C -4,4 C 0,0 km/h (0 Bft)
10.03.2015 06:25 -3,3 C 0,8 C 81 % 81 % 1026,1 hPa 0,0 l/m 0,3 km/h (0 Bft) N-NW 337 -2,1 C -4,4 C 0,0 km/h (0 Bft)
10.03.2015 06:30 -3,7 C 0,8 C 80 % 80 % 1026,1 hPa 0,0 l/m 0,0 km/h (0 Bft) O 90 -2,2 C -4,8 C 0,0 km/h (0 Bft)
10.03.2015 06:35 -3,6 C 0,8 C 80 % 80 % 1026,3 hPa 0,0 l/m 0,0 km/h (0 Bft) O-NO 67 -2,2 C -4,9 C 0,0 km/h (0 Bft)
10.03.2015 06:40 -3,4 C 0,8 C 80 % 80 % 1026,3 hPa 0,0 l/m 0,0 km/h (0 Bft) NO 45 -2,2 C -4,7 C 0,0 km/h (0 Bft)
10.03.2015 06:45 -3,8 C 0,8 C 80 % 80 % 1026,3 hPa 0,0 l/m 0,0 km/h (0 Bft) W-NW 292 -2,2 C -4,9 C 0,0 km/h (0 Bft)
10.03.2015 06:50 -4,1 C 0,8 C 80 % 80 % 1026,3 hPa 0,0 l/m 0,0 km/h (0 Bft) O-SO 112 -2,2 C -5,1 C 0,0 km/h (0 Bft)
10.03.2015 06:55 -3,7 C 0,8 C 80 % 80 % 1026,4 hPa 0,0 l/m 0,0 km/h (0 Bft) O-NO 67 -2,2 C -5,0 C 0,0 km/h (0 Bft)
10.03.2015 07:00 -3,6 C 0,8 C 80 % 80 % 1026,4 hPa 0,0 l/m 0,0 km/h (0 Bft) N-NW 337 -2,2 C -5,0 C 0,0 km/h (0 Bft)
10.03.2015 07:05 -3,6 C 0,8 C 80 % 80 % 1026,4 hPa 0,0 l/m 0,0 km/h (0 Bft) O-SO 112 -2,2 C -5,0 C 0,0 km/h (0 Bft)
10.03.2015 07:10 -3,5 C 0,8 C 80 % 80 % 1026,4 hPa 0,0 l/m 0,0 km/h (0 Bft) O-NO 67 -2,2 C -4,8 C 0,0 km/h (0 Bft)
10.03.2015 07:15 -3,5 C 0,8 C 80 % 80 % 1026,9 hPa 0,0 l/m 0,0 km/h (0 Bft) O-SO 112 -2,2 C -4,7 C 0,0 km/h (0 Bft)
10.03.2015 07:20 -3,1 C 0,8 C 80 % 80 % 1026,9 hPa 0,0 l/m 0,0 km/h (0 Bft) W-SW 247 -2,2 C -4,6 C 0,0 km/h (0 Bft)
10.03.2015 07:25 -3,1 C 0,8 C 80 % 80 % 1026,9 hPa 0,0 l/m 0,0 km/h (0 Bft) O-NO 67 -2,2 C -4,5 C 0,0 km/h (0 Bft)
10.03.2015 07:30 -3,3 C 0,8 C 79 % 79 % 1026,9 hPa 0,0 l/m 0,0 km/h (0 Bft) NO 45 -2,4 C -4,4 C 0,0 km/h (0 Bft)
10.03.2015 07:35 -3,3 C 0,8 C 79 % 79 % 1027,2 hPa 0,0 l/m 0,0 km/h (0 Bft) SO 135 -2,4 C -4,4 C 0,0 km/h (0 Bft)
10.03.2015 07:40 -2,3 C 0,8 C 80 % 80 % 1027,2 hPa 0,0 l/m 0,3 km/h (0 Bft) S-SO 157 -2,2 C -4,2 C 4,0 km/h (1 Bft)
10.03.2015 07:45 -2,2 C 0,8 C 79 % 79 % 1027,2 hPa 0,0 l/m 0,3 km/h (0 Bft) O-SO 112 -2,4 C -3,8 C 0,0 km/h (0 Bft)
10.03.2015 07:50 -1,4 C 0,8 C 79 % 79 % 1027,2 hPa 0,0 l/m 1,0 km/h (0 Bft) SO 135 -2,4 C -3,3 C 2,7 km/h (1 Bft)
10.03.2015 07:55 -1,0 C 0,8 C 79 % 79 % 1027,4 hPa 0,0 l/m 1,1 km/h (1 Bft) SO 135 -2,4 C -2,9 C 2,6 km/h (1 Bft)
10.03.2015 08:00 -0,2 C 0,8 C 79 % 79 % 1027,4 hPa 0,0 l/m 1,8 km/h (1 Bft) SO 135 -2,4 C -2,3 C 3,2 km/h (1 Bft)
10.03.2015 08:05 0,0 C 0,8 C 78 % 78 % 1027,4 hPa 0,0 l/m 1,6 km/h (1 Bft) S-SW 202 -2,6 C -1,9 C 0,0 km/h (0 Bft)
10.03.2015 08:10 0,5 C 0,8 C 76 % 76 % 1027,4 hPa 0,0 l/m 0,8 km/h (0 Bft) S-SO 157 -2,9 C -1,3 C 0,0 km/h (0 Bft)
10.03.2015 08:15 0,7 C 0,9 C 75 % 75 % 1027,5 hPa 0,0 l/m 0,8 km/h (0 Bft) SO 135 -3,0 C -1,0 C 2,4 km/h (1 Bft)
10.03.2015 08:20 0,9 C 0,9 C 73 % 73 % 1027,5 hPa 0,0 l/m 1,4 km/h (1 Bft) SW 225 -3,4 C -0,5 C 5,6 km/h (1 Bft)
10.03.2015 08:25 0,9 C 0,9 C 72 % 72 % 1027,5 hPa 0,0 l/m 1,8 km/h (1 Bft) SO 135 -3,6 C -0,2 C 3,4 km/h (1 Bft)
10.03.2015 08:30 0,3 C 0,9 C 71 % 71 % 1027,5 hPa 0,0 l/m 1,3 km/h (1 Bft) O-NO 67 -3,7 C 0,0 C 0,0 km/h (0 Bft)
10.03.2015 08:35 0,8 C 0,9 C 72 % 72 % 1027,4 hPa 0,0 l/m 0,2 km/h (0 Bft) O-NO 67 -3,6 C 0,2 C 0,0 km/h (0 Bft)
10.03.2015 08:40 0,9 C 0,9 C 71 % 71 % 1027,4 hPa 0,0 l/m 0,0 km/h (0 Bft) N-NW 337 -3,7 C 0,6 C 0,0 km/h (0 Bft)
10.03.2015 08:45 0,9 C 0,9 C 71 % 71 % 1027,4 hPa 0,0 l/m 0,0 km/h (0 Bft) N-NO 22 -3,7 C 1,0 C 0,0 km/h (0 Bft)
10.03.2015 08:50 0,9 C 0,9 C 71 % 71 % 1027,4 hPa 0,0 l/m 0,0 km/h (0 Bft) S-SO 157 -3,7 C 2,0 C 0,0 km/h (0 Bft)
10.03.2015 08:55 0,9 C 0,9 C 71 % 71 % 1027,8 hPa 0,0 l/m 0,0 km/h (0 Bft) SO 135 -3,7 C 2,2 C 0,0 km/h (0 Bft)
10.03.2015 09:00 0,8 C 0,8 C 71 % 71 % 1027,8 hPa 0,0 l/m 0,0 km/h (0 Bft) O-NO 67 -3,8 C 4,4 C 0,0 km/h (0 Bft)
10.03.2015 09:05 0,8 C 0,8 C 71 % 71 % 1027,8 hPa 0,0 l/m 0,0 km/h (0 Bft) O-NO 67 -3,8 C 7,4 C 0,0 km/h (0 Bft)
10.03.2015 09:10 0,8 C 0,8 C 69 % 69 % 1027,8 hPa 0,0 l/m 0,0 km/h (0 Bft) O-NO 67 -4,2 C 10,8 C 0,0 km/h (0 Bft)
10.03.2015 09:15 0,8 C 0,8 C 67 % 67 % 1028,6 hPa 0,0 l/m 0,0 km/h (0 Bft) O-NO 67 -4,6 C 11,7 C 0,0 km/h (0 Bft)
10.03.2015 09:20 0,9 C 0,9 C 67 % 67 % 1028,6 hPa 0,0 l/m 0,0 km/h (0 Bft) O-NO 67 -4,5 C 12,4 C 0,0 km/h (0 Bft)
10.03.2015 09:25 0,8 C 0,8 C 66 % 66 % 1028,6 hPa 0,0 l/m 0,0 km/h (0 Bft) O-NO 67 -4,8 C 13,8 C 0,0 km/h (0 Bft)
10.03.2015 09:30 0,8 C 0,8 C 64 % 64 % 1028,6 hPa 0,0 l/m 0,0 km/h (0 Bft) O-NO 67 -5,2 C 16,0 C 0,0 km/h (0 Bft)
10.03.2015 09:35 0,8 C 0,8 C 64 % 64 % 1029,2 hPa 0,0 l/m 0,0 km/h (0 Bft) O-NO 67 -5,2 C 17,3 C 0,0 km/h (0 Bft)
10.03.2015 09:40 0,8 C 0,8 C 62 % 62 % 1029,2 hPa 0,0 l/m 0,0 km/h (0 Bft) O-SO 112 -5,6 C 16,2 C 0,0 km/h (0 Bft)
10.03.2015 09:45 0,8 C 0,8 C 59 % 59 % 1029,2 hPa 0,0 l/m 0,0 km/h (0 Bft) O 90 -6,3 C 14,9 C 0,0 km/h (0 Bft)
10.03.2015 09:50 0,8 C 0,8 C 58 % 58 % 1029,2 hPa 0,0 l/m 0,0 km/h (0 Bft) SO 135 -6,5 C 14,5 C 0,0 km/h (0 Bft)
10.03.2015 09:55 0,8 C 0,8 C 59 % 59 % 1030,1 hPa 0,0 l/m 0,0 km/h (0 Bft) O-NO 67 -6,3 C 15,8 C 0,0 km/h (0 Bft)
10.03.2015 10:00 0,9 C 0,9 C 57 % 57 % 1030,1 hPa 0,0 l/m 0,0 km/h (0 Bft) NO 45 -6,6 C 18,1 C 0,0 km/h (0 Bft)
10.03.2015 10:05 0,9 C 0,9 C 57 % 57 % 1030,1 hPa 0,0 l/m 0,0 km/h (0 Bft) O-SO 112 -6,6 C 18,9 C 0,0 km/h (0 Bft)
10.03.2015 10:10 0,8 C 0,8 C 56 % 56 % 1030,1 hPa 0,0 l/m 0,8 km/h (0 Bft) W-SW 247 -7,0 C 19,2 C 2,9 km/h (1 Bft)
10.03.2015 10:15 0,8 C 0,8 C 53 % 53 % 1030,3 hPa 0,0 l/m 1,8 km/h (1 Bft) W-SW 247 -7,7 C 18,7 C 4,0 km/h (1 Bft)
10.03.2015 10:20 0,8 C 0,8 C 52 % 52 % 1030,3 hPa 0,0 l/m 2,7 km/h (1 Bft) W-NW 292 -7,9 C 17,8 C 6,6 km/h (2 Bft)
10.03.2015 10:25 0,8 C 0,8 C 49 % 49 % 1030,3 hPa 0,0 l/m 3,2 km/h (1 Bft) NW 315 -8,7 C 17,7 C 7,6 km/h (2 Bft)
10.03.2015 10:30 0,8 C 0,8 C 49 % 49 % 1030,3 hPa 0,0 l/m 3,7 km/h (1 Bft) W-SW 247 -8,7 C 17,0 C 12,4 km/h (3 Bft)
10.03.2015 10:35 0,8 C 0,8 C 47 % 47 % 1030,8 hPa 0,0 l/m 4,8 km/h (1 Bft) W-SW 247 -9,2 C 17,1 C 12,4 km/h (3 Bft)
10.03.2015 10:40 0,8 C 0,8 C 46 % 46 % 1030,8 hPa 0,0 l/m 6,3 km/h (2 Bft) W-SW 247 -9,5 C 16,2 C 13,7 km/h (3 Bft)
10.03.2015 10:45 0,8 C 0,8 C 46 % 46 % 1030,8 hPa 0,0 l/m 7,4 km/h (2 Bft) W 270 -9,5 C 15,1 C 4,8 km/h (1 Bft)
10.03.2015 10:50 0,8 C 0,8 C 47 % 47 % 1030,8 hPa 0,0 l/m 7,1 km/h (2 Bft) W 270 -9,2 C 15,0 C 16,6 km/h (3 Bft)
10.03.2015 10:55 0,8 C 0,8 C 46 % 46 % 1031,1 hPa 0,0 l/m 6,6 km/h (2 Bft) SW 225 -9,5 C 15,3 C 8,5 km/h (2 Bft)
10.03.2015 11:00 0,8 C 0,8 C 46 % 46 % 1031,1 hPa 0,0 l/m 5,6 km/h (1 Bft) S 180 -9,5 C 15,9 C 6,1 km/h (2 Bft)
10.03.2015 11:05 0,8 C 0,8 C 46 % 46 % 1031,1 hPa 0,0 l/m 5,5 km/h (1 Bft) NW 315 -9,5 C 15,9 C 5,5 km/h (1 Bft)
10.03.2015 11:10 0,8 C 0,8 C 47 % 47 % 1031,1 hPa 0,0 l/m 5,0 km/h (1 Bft) SW 225 -9,2 C 16,4 C 7,1 km/h (2 Bft)
10.03.2015 11:15 0,8 C 0,8 C 47 % 47 % 1031,1 hPa 0,0 l/m 3,9 km/h (1 Bft) O 90 -9,2 C 17,1 C 4,3 km/h (1 Bft)
10.03.2015 11:20 0,8 C 0,8 C 45 % 45 % 1031,1 hPa 0,0 l/m 4,8 km/h (1 Bft) S 180 -9,8 C 17,1 C 4,5 km/h (1 Bft)
10.03.2015 11:25 0,8 C 0,8 C 45 % 45 % 1031,1 hPa 0,0 l/m 5,0 km/h (1 Bft) W-SW 247 -9,8 C 17,0 C 5,0 km/h (1 Bft)
10.03.2015 11:30 0,8 C 0,8 C 45 % 45 % 1031,1 hPa 0,0 l/m 4,5 km/h (1 Bft) W-SW 247 -9,8 C 17,3 C 10,5 km/h (2 Bft)
10.03.2015 11:35 0,8 C 0,8 C 44 % 44 % 1031,4 hPa 0,0 l/m 5,6 km/h (1 Bft) W-SW 247 -10,0 C 16,9 C 7,6 km/h (2 Bft)
10.03.2015 11:40 0,8 C 0,8 C 44 % 44 % 1031,4 hPa 0,0 l/m 6,4 km/h (2 Bft) S-SW 202 -10,0 C 16,7 C 3,7 km/h (1 Bft)
10.03.2015 11:45 0,8 C 0,8 C 44 % 44 % 1031,4 hPa 0,0 l/m 5,1 km/h (1 Bft) W 270 -10,0 C 16,9 C 9,0 km/h (2 Bft)
10.03.2015 11:50 0,8 C 0,8 C 44 % 44 % 1031,4 hPa 0,0 l/m 5,3 km/h (1 Bft) W-SW 247 -10,0 C 16,7 C 3,2 km/h (1 Bft)
10.03.2015 11:55 0,8 C 0,8 C 43 % 43 % 1031,3 hPa 0,0 l/m 6,3 km/h (2 Bft) W-SW 247 -10,3 C 16,7 C 11,6 km/h (2 Bft)
10.03.2015 12:00 0,8 C 0,8 C 43 % 43 % 1031,3 hPa 0,0 l/m 5,3 km/h (1 Bft) W-NW 292 -10,3 C 16,9 C 3,1 km/h (1 Bft)
10.03.2015 12:05 0,8 C 0,8 C 43 % 43 % 1031,3 hPa 0,0 l/m 4,8 km/h (1 Bft) NW 315 -10,3 C 17,5 C 3,9 km/h (1 Bft)
10.03.2015 12:10 0,8 C 0,8 C 43 % 43 % 1031,3 hPa 0,0 l/m 3,9 km/h (1 Bft) NW 315 -10,3 C 17,8 C 3,9 km/h (1 Bft)
10.03.2015 12:15 0,8 C 0,8 C 43 % 43 % 1031,1 hPa 0,0 l/m 4,3 km/h (1 Bft) W-SW 247 -10,3 C 17,8 C 5,1 km/h (1 Bft)
10.03.2015 12:20 0,8 C 0,8 C 43 % 43 % 1031,1 hPa 0,0 l/m 3,7 km/h (1 Bft) W-NW 292 -10,3 C 18,5 C 3,2 km/h (1 Bft)
10.03.2015 12:25 0,8 C 0,8 C 42 % 42 % 1031,1 hPa 0,0 l/m 3,5 km/h (1 Bft) NW 315 -10,6 C 18,8 C 6,9 km/h (2 Bft)
10.03.2015 12:30 0,8 C 0,8 C 42 % 42 % 1031,1 hPa 0,0 l/m 3,1 km/h (1 Bft) W 270 -10,6 C 19,3 C 2,1 km/h (1 Bft)
10.03.2015 12:35 0,9 C 0,9 C 41 % 41 % 1030,8 hPa 0,0 l/m 2,9 km/h (1 Bft) W-SW 247 -10,8 C 19,7 C 4,2 km/h (1 Bft)
10.03.2015 12:40 0,9 C 0,9 C 40 % 40 % 1030,8 hPa 0,0 l/m 2,7 km/h (1 Bft) W-NW 292 -11,1 C 19,8 C 3,5 km/h (1 Bft)
10.03.2015 12:45 0,9 C 0,9 C 40 % 40 % 1030,8 hPa 0,0 l/m 2,9 km/h (1 Bft) W-NW 292 -11,1 C 19,7 C 3,9 km/h (1 Bft)
10.03.2015 12:50 0,9 C 0,9 C 41 % 41 % 1030,8 hPa 0,0 l/m 2,6 km/h (1 Bft) W-SW 247 -10,8 C 20,3 C 3,9 km/h (1 Bft)
10.03.2015 12:55 0,9 C 0,9 C 41 % 41 % 1030,6 hPa 0,0 l/m 2,1 km/h (1 Bft) W 270 -10,8 C 20,5 C 1,9 km/h (1 Bft)
10.03.2015 13:00 0,9 C 0,9 C 40 % 40 % 1030,6 hPa 0,0 l/m 2,4 km/h (1 Bft) W-SW 247 -11,1 C 20,7 C 3,2 km/h (1 Bft)
10.03.2015 13:05 0,9 C 0,9 C 38 % 38 % 1030,6 hPa 0,0 l/m 3,2 km/h (1 Bft) W 270 -11,8 C 20,3 C 4,3 km/h (1 Bft)
10.03.2015 13:10 0,9 C 0,9 C 38 % 38 % 1030,6 hPa 0,0 l/m 3,5 km/h (1 Bft) N-NW 337 -11,8 C 20,1 C 6,1 km/h (2 Bft)
10.03.2015 13:15 0,9 C 0,9 C 38 % 38 % 1030,1 hPa 0,0 l/m 2,9 km/h (1 Bft) SW 225 -11,8 C 20,1 C 0,0 km/h (0 Bft)
10.03.2015 13:20 0,9 C 0,9 C 38 % 38 % 1030,1 hPa 0,0 l/m 1,8 km/h (1 Bft) S 180 -11,8 C 21,0 C 2,9 km/h (1 Bft)
10.03.2015 13:25 0,9 C 0,9 C 38 % 38 % 1030,1 hPa 0,0 l/m 1,6 km/h (1 Bft) SW 225 -11,8 C 21,0 C 1,8 km/h (1 Bft)
10.03.2015 13:30 0,9 C 0,9 C 39 % 39 % 1030,1 hPa 0,0 l/m 2,6 km/h (1 Bft) W-SW 247 -11,5 C 21,2 C 4,5 km/h (1 Bft)
10.03.2015 13:35 0,9 C 0,9 C 38 % 38 % 1030,0 hPa 0,0 l/m 2,6 km/h (1 Bft) W-SW 247 -11,8 C 21,0 C 3,7 km/h (1 Bft)
10.03.2015 13:40 0,9 C 0,9 C 37 % 37 % 1030,0 hPa 0,0 l/m 3,2 km/h (1 Bft) S-SW 202 -12,1 C 20,2 C 3,9 km/h (1 Bft)
10.03.2015 13:45 0,9 C 0,9 C 37 % 37 % 1030,0 hPa 0,0 l/m 3,2 km/h (1 Bft) W 270 -12,1 C 19,3 C 3,2 km/h (1 Bft)
10.03.2015 13:50 0,9 C 0,9 C 37 % 37 % 1030,0 hPa 0,0 l/m 3,2 km/h (1 Bft) NW 315 -12,1 C 18,1 C 6,0 km/h (2 Bft)
10.03.2015 13:55 0,9 C 0,9 C 37 % 37 % 1029,4 hPa 0,0 l/m 3,4 km/h (1 Bft) W-NW 292 -12,1 C 17,2 C 6,3 km/h (2 Bft)
10.03.2015 14:00 0,9 C 0,9 C 38 % 38 % 1029,4 hPa 0,0 l/m 4,0 km/h (1 Bft) W 270 -11,8 C 15,9 C 6,1 km/h (2 Bft)
10.03.2015 14:05 0,9 C 0,9 C 38 % 38 % 1029,4 hPa 0,0 l/m 4,2 km/h (1 Bft) W 270 -11,8 C 15,3 C 5,6 km/h (1 Bft)
10.03.2015 14:10 0,9 C 0,9 C 38 % 38 % 1029,4 hPa 0,0 l/m 3,7 km/h (1 Bft) NW 315 -11,8 C 15,3 C 1,6 km/h (1 Bft)
10.03.2015 14:15 0,9 C 0,9 C 38 % 38 % 1029,1 hPa 0,0 l/m 3,5 km/h (1 Bft) W-NW 292 -11,8 C 15,5 C 4,2 km/h (1 Bft)
10.03.2015 14:20 0,9 C 0,9 C 38 % 38 % 1029,1 hPa 0,0 l/m 3,5 km/h (1 Bft) W-SW 247 -11,8 C 16,3 C 3,2 km/h (1 Bft)
10.03.2015 14:25 0,9 C 0,9 C 38 % 38 % 1029,1 hPa 0,0 l/m 3,4 km/h (1 Bft) W 270 -11,8 C 17,0 C 7,4 km/h (2 Bft)
10.03.2015 14:30 0,9 C 0,9 C 38 % 38 % 1029,1 hPa 0,0 l/m 2,9 km/h (1 Bft) W 270 -11,8 C 18,1 C 2,9 km/h (1 Bft)
10.03.2015 14:35 0,9 C 0,9 C 37 % 37 % 1028,8 hPa 0,0 l/m 2,9 km/h (1 Bft) W-SW 247 -12,1 C 18,6 C 4,0 km/h (1 Bft)
10.03.2015 14:40 0,9 C 0,9 C 36 % 36 % 1028,8 hPa 0,0 l/m 3,9 km/h (1 Bft) W-NW 292 -12,4 C 18,6 C 3,5 km/h (1 Bft)
10.03.2015 14:45 0,9 C 0,9 C 37 % 37 % 1028,8 hPa 0,0 l/m 3,2 km/h (1 Bft) W-SW 247 -12,1 C 18,9 C 3,1 km/h (1 Bft)
10.03.2015 14:50 0,9 C 0,9 C 37 % 37 % 1028,8 hPa 0,0 l/m 3,1 km/h (1 Bft) W 270 -12,1 C 19,0 C 4,5 km/h (1 Bft)
10.03.2015 14:55 0,9 C 0,9 C 36 % 36 % 1028,1 hPa 0,0 l/m 4,0 km/h (1 Bft) W-SW 247 -12,4 C 18,7 C 4,2 km/h (1 Bft)
10.03.2015 15:00 0,9 C 0,9 C 36 % 36 % 1028,1 hPa 0,0 l/m 3,5 km/h (1 Bft) W-NW 292 -12,4 C 18,6 C 0,0 km/h (0 Bft)
10.03.2015 15:05 0,9 C 0,9 C 36 % 36 % 1028,1 hPa 0,0 l/m 3,2 km/h (1 Bft) W 270 -12,4 C 18,8 C 2,9 km/h (1 Bft)
10.03.2015 15:10 1,0 C 1,0 C 35 % 35 % 1028,1 hPa 0,0 l/m 2,9 km/h (1 Bft) NW 315 -12,7 C 18,8 C 3,7 km/h (1 Bft)
10.03.2015 15:15 1,0 C 1,0 C 35 % 35 % 1027,8 hPa 0,0 l/m 3,4 km/h (1 Bft) W-SW 247 -12,7 C 18,5 C 3,9 km/h (1 Bft)
10.03.2015 15:20 1,0 C 1,0 C 35 % 35 % 1027,8 hPa 0,0 l/m 3,5 km/h (1 Bft) W-NW 292 -12,7 C 18,3 C 4,3 km/h (1 Bft)
10.03.2015 15:25 1,0 C 1,0 C 35 % 35 % 1027,8 hPa 0,0 l/m 3,2 km/h (1 Bft) W-SW 247 -12,7 C 18,4 C 3,2 km/h (1 Bft)
10.03.2015 15:30 1,0 C 1,0 C 35 % 35 % 1027,8 hPa 0,0 l/m 2,7 km/h (1 Bft) W 270 -12,7 C 18,5 C 3,5 km/h (1 Bft)
10.03.2015 15:35 1,0 C 1,0 C 35 % 35 % 1027,8 hPa 0,0 l/m 2,7 km/h (1 Bft) W-SW 247 -12,7 C 18,4 C 2,4 km/h (1 Bft)
10.03.2015 15:40 1,0 C 1,0 C 35 % 35 % 1027,8 hPa 0,0 l/m 3,7 km/h (1 Bft) W-NW 292 -12,7 C 18,0 C 3,7 km/h (1 Bft)
10.03.2015 15:45 1,0 C 1,0 C 34 % 34 % 1027,8 hPa 0,0 l/m 3,9 km/h (1 Bft) W-SW 247 -13,1 C 17,2 C 2,4 km/h (1 Bft)
10.03.2015 15:50 1,0 C 1,0 C 34 % 34 % 1027,8 hPa 0,0 l/m 3,2 km/h (1 Bft) W-SW 247 -13,1 C 16,3 C 4,2 km/h (1 Bft)
10.03.2015 15:55 1,0 C 1,0 C 34 % 34 % 1027,2 hPa 0,0 l/m 3,1 km/h (1 Bft) W 270 -13,1 C 16,4 C 2,3 km/h (1 Bft)
10.03.2015 16:00 1,1 C 1,1 C 35 % 35 % 1027,2 hPa 0,0 l/m 3,5 km/h (1 Bft) O 90 -12,6 C 14,9 C 4,8 km/h (1 Bft)
10.03.2015 16:05 1,1 C 1,1 C 35 % 35 % 1027,2 hPa 0,0 l/m 3,2 km/h (1 Bft) W 270 -12,6 C 13,9 C 5,6 km/h (1 Bft)
10.03.2015 16:10 1,1 C 1,1 C 36 % 36 % 1027,2 hPa 0,0 l/m 3,5 km/h (1 Bft) W-SW 247 -12,3 C 13,1 C 2,1 km/h (1 Bft)
10.03.2015 16:15 1,1 C 1,1 C 36 % 36 % 1027,1 hPa 0,0 l/m 2,7 km/h (1 Bft) W-SW 247 -12,3 C 12,8 C 1,6 km/h (1 Bft)
10.03.2015 16:20 1,1 C 1,1 C 37 % 37 % 1027,1 hPa 0,0 l/m 1,6 km/h (1 Bft) SW 225 -11,9 C 12,3 C 3,4 km/h (1 Bft)
10.03.2015 16:25 1,1 C 1,1 C 38 % 38 % 1027,1 hPa 0,0 l/m 2,1 km/h (1 Bft) W-SW 247 -11,6 C 12,0 C 3,1 km/h (1 Bft)
10.03.2015 16:30 1,1 C 1,1 C 39 % 39 % 1027,1 hPa 0,0 l/m 2,4 km/h (1 Bft) W-SW 247 -11,3 C 11,5 C 2,6 km/h (1 Bft)
10.03.2015 16:35 1,1 C 1,1 C 40 % 40 % 1027,1 hPa 0,0 l/m 1,6 km/h (1 Bft) W-SW 247 -11,0 C 11,4 C 2,3 km/h (1 Bft)
10.03.2015 16:40 1,1 C 1,1 C 40 % 40 % 1027,1 hPa 0,0 l/m 1,6 km/h (1 Bft) SW 225 -11,0 C 11,4 C 0,0 km/h (0 Bft)
10.03.2015 16:45 1,1 C 1,1 C 41 % 41 % 1027,1 hPa 0,0 l/m 1,6 km/h (1 Bft) W 270 -10,7 C 11,2 C 2,1 km/h (1 Bft)
10.03.2015 16:50 1,1 C 1,1 C 41 % 41 % 1027,1 hPa 0,0 l/m 1,1 km/h (1 Bft) W-SW 247 -10,7 C 10,9 C 3,1 km/h (1 Bft)
10.03.2015 16:55 1,1 C 1,1 C 41 % 41 % 1026,9 hPa 0,0 l/m 1,4 km/h (1 Bft) W-SW 247 -10,7 C 10,6 C 2,4 km/h (1 Bft)
10.03.2015 17:00 1,1 C 1,1 C 42 % 42 % 1026,9 hPa 0,0 l/m 1,4 km/h (1 Bft) W-SW 247 -10,4 C 10,3 C 2,3 km/h (1 Bft)
10.03.2015 17:05 1,1 C 1,1 C 42 % 42 % 1026,9 hPa 0,0 l/m 1,0 km/h (0 Bft) S-SW 202 -10,4 C 10,0 C 0,0 km/h (0 Bft)
10.03.2015 17:10 1,1 C 1,1 C 42 % 42 % 1026,9 hPa 0,0 l/m 0,5 km/h (0 Bft) SW 225 -10,4 C 9,6 C 1,9 km/h (1 Bft)
10.03.2015 17:15 1,1 C 1,1 C 43 % 43 % 1027,0 hPa 0,0 l/m 0,6 km/h (0 Bft) W-SW 247 -10,1 C 9,4 C 1,9 km/h (1 Bft)
10.03.2015 17:20 1,1 C 1,1 C 43 % 43 % 1027,0 hPa 0,0 l/m 0,6 km/h (0 Bft) W-SW 247 -10,1 C 9,1 C 0,0 km/h (0 Bft)
10.03.2015 17:25 1,1 C 1,1 C 43 % 43 % 1027,0 hPa 0,0 l/m 0,6 km/h (0 Bft) S 180 -10,1 C 8,8 C 1,6 km/h (1 Bft)
10.03.2015 17:30 1,3 C 1,3 C 43 % 43 % 1027,0 hPa 0,0 l/m 0,5 km/h (0 Bft) S 180 -9,9 C 8,6 C 0,0 km/h (0 Bft)
10.03.2015 17:35 1,3 C 1,3 C 43 % 43 % 1027,1 hPa 0,0 l/m 1,0 km/h (0 Bft) S 180 -9,9 C 8,4 C 2,7 km/h (1 Bft)
10.03.2015 17:40 1,3 C 1,3 C 44 % 44 % 1027,1 hPa 0,0 l/m 1,9 km/h (1 Bft) S 180 -9,6 C 8,4 C 3,7 km/h (1 Bft)
10.03.2015 17:45 1,3 C 1,3 C 45 % 45 % 1027,1 hPa 0,0 l/m 2,6 km/h (1 Bft) S-SO 157 -9,3 C 8,2 C 3,4 km/h (1 Bft)
10.03.2015 17:50 1,3 C 1,3 C 46 % 46 % 1027,1 hPa 0,0 l/m 2,7 km/h (1 Bft) S-SO 157 -9,0 C 8,0 C 3,9 km/h (1 Bft)
10.03.2015 17:55 1,3 C 1,3 C 47 % 47 % 1027,1 hPa 0,0 l/m 2,7 km/h (1 Bft) S 180 -8,7 C 7,9 C 2,9 km/h (1 Bft)
10.03.2015 18:00 1,3 C 1,3 C 48 % 48 % 1027,1 hPa 0,0 l/m 2,6 km/h (1 Bft) S-SO 157 -8,5 C 7,7 C 4,0 km/h (1 Bft)
10.03.2015 18:05 1,3 C 1,3 C 48 % 48 % 1027,1 hPa 0,0 l/m 2,7 km/h (1 Bft) S-SO 157 -8,5 C 7,6 C 5,0 km/h (1 Bft)
10.03.2015 18:10 1,3 C 1,3 C 49 % 49 % 1027,1 hPa 0,0 l/m 3,7 km/h (1 Bft) SO 135 -8,2 C 7,6 C 3,7 km/h (1 Bft)
10.03.2015 18:15 1,3 C 1,3 C 49 % 49 % 1027,2 hPa 0,0 l/m 3,5 km/h (1 Bft) SO 135 -8,2 C 7,4 C 3,2 km/h (1 Bft)
10.03.2015 18:20 1,3 C 1,3 C 49 % 49 % 1027,2 hPa 0,0 l/m 2,6 km/h (1 Bft) SO 135 -8,2 C 7,2 C 2,1 km/h (1 Bft)
10.03.2015 18:25 1,3 C 1,3 C 50 % 50 % 1027,2 hPa 0,0 l/m 1,9 km/h (1 Bft) SO 135 -8,0 C 7,0 C 3,2 km/h (1 Bft)
10.03.2015 18:30 1,2 C 1,2 C 51 % 51 % 1027,2 hPa 0,0 l/m 1,3 km/h (1 Bft) SO 135 -7,8 C 6,6 C 1,6 km/h (1 Bft)
10.03.2015 18:35 1,2 C 1,2 C 51 % 51 % 1027,1 hPa 0,0 l/m 1,0 km/h (0 Bft) SO 135 -7,8 C 6,3 C 1,9 km/h (1 Bft)
10.03.2015 18:40 1,2 C 1,2 C 51 % 51 % 1027,1 hPa 0,0 l/m 0,6 km/h (0 Bft) SO 135 -7,8 C 6,1 C 1,9 km/h (1 Bft)
10.03.2015 18:45 1,2 C 1,2 C 51 % 51 % 1027,1 hPa 0,0 l/m 0,8 km/h (0 Bft) S-SO 157 -7,8 C 6,0 C 3,1 km/h (1 Bft)
10.03.2015 18:50 1,2 C 1,2 C 52 % 52 % 1027,1 hPa 0,0 l/m 1,4 km/h (1 Bft) SO 135 -7,5 C 5,9 C 2,9 km/h (1 Bft)
10.03.2015 18:55 1,2 C 1,2 C 52 % 52 % 1027,3 hPa 0,0 l/m 1,9 km/h (1 Bft) SO 135 -7,5 C 5,8 C 3,9 km/h (1 Bft)
10.03.2015 19:00 1,2 C 1,2 C 53 % 53 % 1027,3 hPa 0,0 l/m 1,4 km/h (1 Bft) SO 135 -7,3 C 5,7 C 0,0 km/h (0 Bft)
10.03.2015 19:05 1,2 C 1,2 C 53 % 53 % 1027,3 hPa 0,0 l/m 0,8 km/h (0 Bft) O-SO 112 -7,3 C 5,5 C 0,0 km/h (0 Bft)
10.03.2015 19:10 1,2 C 1,2 C 54 % 54 % 1027,3 hPa 0,0 l/m 0,5 km/h (0 Bft) SO 135 -7,1 C 5,2 C 2,3 km/h (1 Bft)
10.03.2015 19:15 1,2 C 1,2 C 55 % 55 % 1027,4 hPa 0,0 l/m 1,3 km/h (1 Bft) SO 135 -6,8 C 5,2 C 2,4 km/h (1 Bft)
10.03.2015 19:20 5,4 C 5,4 C 54 % 54 % 1027,4 hPa 0,0 l/m 2,6 km/h (1 Bft) SO 135 -3,1 C 5,1 C 2,4 km/h (1 Bft)
10.03.2015 19:25 5,2 C 5,4 C 54 % 54 % 1027,4 hPa 0,0 l/m 2,6 km/h (1 Bft) SO 135 -3,1 C 4,9 C 2,7 km/h (1 Bft)
10.03.2015 19:30 5,0 C 9,6 C 53 % 53 % 1027,4 hPa 0,0 l/m 1,9 km/h (1 Bft) SO 135 0,5 C 4,6 C 2,4 km/h (1 Bft)
10.03.2015 19:35 5,0 C 9,0 C 53 % 53 % 1027,4 hPa 0,0 l/m 1,9 km/h (1 Bft) SO 135 -0,1 C 4,5 C 2,6 km/h (1 Bft)
10.03.2015 19:40 4,9 C 7,1 C 51 % 51 % 1027,4 hPa 0,0 l/m 2,4 km/h (1 Bft) SO 135 -2,3 C 4,4 C 2,7 km/h (1 Bft)
10.03.2015 19:45 4,7 C 5,9 C 53 % 53 % 1027,4 hPa 0,0 l/m 1,9 km/h (1 Bft) SO 135 -2,9 C 4,3 C 0,0 km/h (0 Bft)
10.03.2015 19:50 4,7 C 5,9 C 53 % 53 % 1027,4 hPa 0,0 l/m 1,9 km/h (1 Bft) SO 135 -2,9 C 4,3 C 0,0 km/h (0 Bft)
10.03.2015 19:55 4,6 C 5,6 C 53 % 53 % 1027,4 hPa 0,0 l/m 1,0 km/h (0 Bft) SO 135 -3,2 C 4,0 C 0,0 km/h (0 Bft)
10.03.2015 20:00 4,5 C 5,4 C 53 % 53 % 1027,5 hPa 0,0 l/m 0,6 km/h (0 Bft) SO 135 -3,4 C 3,8 C 0,0 km/h (0 Bft)
10.03.2015 20:05 4,3 C 5,2 C 54 % 54 % 1027,5 hPa 0,0 l/m 0,2 km/h (0 Bft) SO 135 -3,3 C 3,6 C 1,8 km/h (1 Bft)
10.03.2015 20:10 3,8 C 4,8 C 54 % 54 % 1027,5 hPa 0,0 l/m 0,0 km/h (0 Bft) SO 135 -3,7 C 3,3 C 0,0 km/h (0 Bft)
10.03.2015 20:11 3,6 C 4,4 C 55 % 55 % 1027,5 hPa 0,0 l/m 0,0 km/h (0 Bft) SO 135 -3,8 C 3,1 C 0,0 km/h (0 Bft)
10.03.2015 20:15 3,6 C 4,4 C 55 % 55 % 1027,5 hPa 0,0 l/m 0,0 km/h (0 Bft) SO 135 -3,8 C 3,1 C 0,0 km/h (0 Bft)
10.03.2015 20:20 3,1 C 4,2 C 55 % 55 % 1027,6 hPa 0,0 l/m 0,0 km/h (0 Bft) SO 135 -4,0 C 2,7 C 0,0 km/h (0 Bft)
10.03.2015 20:25 3,1 C 4,0 C 56 % 56 % 1027,6 hPa 0,0 l/m 0,0 km/h (0 Bft) O-SO 112 -4,0 C 2,4 C 0,0 km/h (0 Bft)
10.03.2015 20:30 3,3 C 4,0 C 56 % 56 % 1027,6 hPa 0,0 l/m 0,0 km/h (0 Bft) SO 135 -4,0 C 2,3 C 0,0 km/h (0 Bft)
10.03.2015 20:35 3,3 C 3,8 C 57 % 57 % 1027,6 hPa 0,0 l/m 0,0 km/h (0 Bft) O-SO 112 -3,9 C 2,3 C 0,0 km/h (0 Bft)
10.03.2015 20:40 3,3 C 3,8 C 57 % 57 % 1027,7 hPa 0,0 l/m 0,0 km/h (0 Bft) SO 135 -3,9 C 2,3 C 0,0 km/h (0 Bft)
10.03.2015 20:45 3,3 C 4,1 C 57 % 57 % 1027,7 hPa 0,0 l/m 0,2 km/h (0 Bft) SO 135 -3,6 C 2,2 C 0,0 km/h (0 Bft)
10.03.2015 20:50 3,3 C 4,1 C 57 % 57 % 1027,7 hPa 0,0 l/m 0,2 km/h (0 Bft) SO 135 -3,6 C 2,2 C 0,0 km/h (0 Bft)
10.03.2015 20:55 3,3 C 4,1 C 57 % 57 % 1027,7 hPa 0,0 l/m 0,2 km/h (0 Bft) SO 135 -3,6 C 2,2 C 1,9 km/h (1 Bft)
10.03.2015 21:00 3,3 C 3,5 C 57 % 57 % 1027,8 hPa 0,0 l/m 0,2 km/h (0 Bft) S-SO 157 -4,2 C 2,0 C 0,0 km/h (0 Bft)
10.03.2015 21:05 3,3 C 3,4 C 58 % 58 % 1027,8 hPa 0,0 l/m 0,2 km/h (0 Bft) O-SO 112 -4,1 C 1,8 C 0,0 km/h (0 Bft)
10.03.2015 21:10 3,3 C 3,3 C 58 % 58 % 1027,8 hPa 0,0 l/m 0,2 km/h (0 Bft) O-SO 112 -4,2 C 1,7 C 0,0 km/h (0 Bft)
10.03.2015 21:15 3,1 C 3,1 C 58 % 58 % 1027,8 hPa 0,0 l/m 0,0 km/h (0 Bft) O-SO 112 -4,3 C 1,5 C 0,0 km/h (0 Bft)
10.03.2015 21:20 2,9 C 2,9 C 59 % 59 % 1027,8 hPa 0,0 l/m 0,0 km/h (0 Bft) S 180 -4,3 C 1,5 C 0,0 km/h (0 Bft)
10.03.2015 21:25 2,9 C 2,9 C 59 % 59 % 1027,8 hPa 0,0 l/m 0,5 km/h (0 Bft) S 180 -4,3 C 1,3 C 2,4 km/h (1 Bft)
10.03.2015 21:30 2,9 C 2,9 C 59 % 59 % 1027,8 hPa 0,0 l/m 0,8 km/h (0 Bft) SO 135 -4,3 C 1,5 C 2,1 km/h (1 Bft)
10.03.2015 21:35 3,3 C 3,4 C 59 % 59 % 1027,8 hPa 0,0 l/m 1,9 km/h (1 Bft) SO 135 -3,8 C 1,9 C 2,1 km/h (1 Bft)
10.03.2015 21:40 3,3 C 3,3 C 59 % 59 % 1028,0 hPa 0,0 l/m 2,4 km/h (1 Bft) SO 135 -3,9 C 2,1 C 4,7 km/h (1 Bft)
10.03.2015 21:45 3,3 C 3,7 C 59 % 59 % 1028,0 hPa 0,0 l/m 3,7 km/h (1 Bft) SO 135 -3,6 C 2,1 C 4,0 km/h (1 Bft)
10.03.2015 21:50 3,3 C 3,8 C 59 % 59 % 1028,0 hPa 0,0 l/m 4,3 km/h (1 Bft) S-SO 157 -3,5 C 2,2 C 4,8 km/h (1 Bft)
10.03.2015 21:55 3,7 C 3,8 C 59 % 59 % 1028,0 hPa 0,0 l/m 4,2 km/h (1 Bft) S-SO 157 -3,5 C 2,6 C 4,3 km/h (1 Bft)
10.03.2015 22:00 3,6 C 3,8 C 59 % 59 % 1028,1 hPa 0,0 l/m 4,0 km/h (1 Bft) SO 135 -3,5 C 2,8 C 3,5 km/h (1 Bft)
10.03.2015 22:05 3,4 C 3,7 C 59 % 59 % 1028,1 hPa 0,0 l/m 3,1 km/h (1 Bft) S-SO 157 -3,6 C 3,1 C 2,7 km/h (1 Bft)
10.03.2015 22:10 3,6 C 3,8 C 59 % 59 % 1028,1 hPa 0,0 l/m 2,6 km/h (1 Bft) S-SO 157 -3,5 C 3,3 C 2,9 km/h (1 Bft)
10.03.2015 22:15 3,8 C 4,1 C 59 % 59 % 1028,1 hPa 0,0 l/m 2,7 km/h (1 Bft) SO 135 -3,2 C 3,5 C 4,0 km/h (1 Bft)
10.03.2015 22:20 4,0 C 4,3 C 59 % 59 % 1028,1 hPa 0,0 l/m 2,6 km/h (1 Bft) S 180 -3,0 C 3,6 C 2,3 km/h (1 Bft)
10.03.2015 22:25 3,9 C 4,4 C 58 % 58 % 1028,1 hPa 0,0 l/m 2,7 km/h (1 Bft) S-SW 202 -3,1 C 3,8 C 4,5 km/h (1 Bft)
10.03.2015 22:30 3,9 C 4,2 C 58 % 58 % 1028,1 hPa 0,0 l/m 2,9 km/h (1 Bft) S-SO 157 -3,3 C 3,7 C 4,2 km/h (1 Bft)
10.03.2015 22:35 4,0 C 4,3 C 59 % 59 % 1028,1 hPa 0,0 l/m 2,7 km/h (1 Bft) S-SO 157 -3,0 C 3,8 C 4,2 km/h (1 Bft)
10.03.2015 22:40 4,0 C 4,4 C 59 % 59 % 1028,1 hPa 0,0 l/m 2,4 km/h (1 Bft) S-SO 157 -2,9 C 3,9 C 2,1 km/h (1 Bft)
10.03.2015 22:45 3,8 C 4,2 C 59 % 59 % 1028,1 hPa 0,0 l/m 1,6 km/h (1 Bft) SO 135 -3,1 C 3,8 C 0,0 km/h (0 Bft)
10.03.2015 22:50 3,2 C 3,8 C 59 % 59 % 1028,1 hPa 0,0 l/m 1,0 km/h (0 Bft) SO 135 -3,5 C 3,5 C 0,0 km/h (0 Bft)
10.03.2015 22:55 3,0 C 3,5 C 59 % 59 % 1028,1 hPa 0,0 l/m 0,3 km/h (0 Bft) SW 225 -3,7 C 3,1 C 0,0 km/h (0 Bft)
10.03.2015 23:00 2,8 C 3,3 C 60 % 60 % 1027,9 hPa 0,0 l/m 0,0 km/h (0 Bft) SW 225 -3,7 C 2,8 C 0,0 km/h (0 Bft)
10.03.2015 23:05 2,8 C 3,2 C 60 % 60 % 1027,9 hPa 0,0 l/m 0,0 km/h (0 Bft) O-SO 112 -3,8 C 2,5 C 0,0 km/h (0 Bft)
10.03.2015 23:10 2,6 C 2,9 C 62 % 62 % 1027,9 hPa 0,0 l/m 0,0 km/h (0 Bft) O-SO 112 -3,6 C 2,4 C 0,0 km/h (0 Bft)
10.03.2015 23:15 3,0 C 3,2 C 61 % 61 % 1027,9 hPa 0,0 l/m 0,5 km/h (0 Bft) SO 135 -3,6 C 2,4 C 1,8 km/h (1 Bft)
10.03.2015 23:20 2,8 C 3,1 C 61 % 61 % 1027,8 hPa 0,0 l/m 0,8 km/h (0 Bft) O-SO 112 -3,7 C 2,5 C 0,0 km/h (0 Bft)
10.03.2015 23:25 2,7 C 3,1 C 62 % 62 % 1027,8 hPa 0,0 l/m 0,5 km/h (0 Bft) O-SO 112 -3,5 C 2,4 C 0,0 km/h (0 Bft)
10.03.2015 23:30 2,5 C 2,8 C 63 % 63 % 1027,8 hPa 0,0 l/m 0,0 km/h (0 Bft) SO 135 -3,5 C 2,3 C 0,0 km/h (0 Bft)
10.03.2015 23:35 2,6 C 2,9 C 64 % 64 % 1027,8 hPa 0,0 l/m 0,2 km/h (0 Bft) SO 135 -3,2 C 2,2 C 0,0 km/h (0 Bft)
10.03.2015 23:40 2,6 C 2,9 C 64 % 64 % 1027,8 hPa 0,0 l/m 0,2 km/h (0 Bft) SO 135 -3,2 C 2,2 C 0,0 km/h (0 Bft)
10.03.2015 23:45 2,5 C 2,9 C 64 % 64 % 1027,8 hPa 0,0 l/m 0,0 km/h (0 Bft) O-SO 112 -3,2 C 2,1 C 0,0 km/h (0 Bft)
10.03.2015 23:50 2,6 C 2,9 C 64 % 64 % 1027,8 hPa 0,0 l/m 0,2 km/h (0 Bft) SO 135 -3,2 C 2,0 C 2,1 km/h (1 Bft)
10.03.2015 23:55 2,8 C 3,2 C 63 % 63 % 1027,8 hPa 0,0 l/m 1,3 km/h (1 Bft) SO 135 -3,1 C 2,3 C 0,0 km/h (0 Bft)
_ Min-Zeit 05:30 12:30 15:55 15:55 06:10 - 23:45 - - 15:55 05:30 23:55
Minimum _ -4,5 C 0,8 C 34 % 34 % 1025,9 hPa - 0,0 km/h (0 Bft) - - -13,1 C -5,4 C 0,0 km/h (0 Bft)
_ Max-Zeit 19:20 19:30 06:25 06:25 11:50 23:55 10:45 - - 19:30 13:30 10:50
Maximum _ 5,4 C 9,6 C 81 % 81 % 1031,4 hPa 0,0 l/m 7,4 km/h
W (2 Bft)
- - 0,5 C 21,2 C 16,6 km/h
W (3 Bft)
Durchschnitt _ 0,1 C 1,5 C 60 % 60 % 1027,9 hPa #0,0 l/m 1,5 km/h (1 Bft) W-SW - -5,8 C 5,4 C 1,9 km/h (1 Bft)